Dewpoint
46 46 44 47 48 48 49 49 49 49 49 49 49 49 49 49 50 55 55 55 51 49 45 47 44 43 43 43 44 42 41 41 42 44 44 38 41 33 29 26 31 32 35 37 32 35 30 26 31 30 33 35 35 34
45 47 48 48 48 48 49 49 48 48 48 48 48 49 49 49 50 53 52 54 54 49 49 51 50 50 48 44 45 44 43 41 42 43 43 42 38 36 35 33 32 30 33 34 30 31 29 32 33 35 37 36 36 37
48 48 48 48 48 48 48 48 48 48 48 48 48 49 49 49 50 52 53 54 54 52 48 48 47 50 51 51 49 44 46 44 42 44 43 44 38 40 37 36 34 33 33 34 31 27 29 31 32 32 33 35 35 35
48 48 48 48 47 47 47 47 47 47 48 48 48 49 49 49 50 52 52 53 52 50 43 47 48 48 50 51 49 48 47 46 43 44 47 42 43 38 40 35 36 34 34 32 33 32 31 31 32 34 35 37 38 38
47 47 47 47 47 47 48 47 47 48 48 49 49 48 49 50 50 53 53 53 51 45 46 48 48 47 48 47 46 46 46 44 45 45 43 44 40 41 40 39 37 34 32 35 34 34 34 34 35 38 38 39 40 41
46 46 46 46 46 47 47 47 48 49 49 49 49 50 49 50 50 55 49 52 49 50 50 46 46 46 47 48 48 48 46 46 44 45 44 40 38 42 39 38 38 38 39 39 37 40 41 40 39 41 41 36 36 35
46 46 46 46 46 47 47 47 48 49 49 49 49 48 48 49 53 46 44 49 47 49 50 44 46 44 45 47 46 47 48 47 46 44 42 43 42 40 39 39 36 36 35 37 39 41 40 39 37 34 34 35 36 36
46 46 46 46 47 47 47 47 47 48 49 49 49 49 49 49 50 51 50 47 47 44 47 43 41 46 45 45 43 44 45 48 44 41 41 41 41 42 40 35 35 35 35 39 35 37 37 33 33 35 36 36 35 34
46 46 46 46 46 46 47 46 46 47 47 48 48 49 52 51 52 51 46 46 50 47 44 38 42 39 43 41 41 43 44 39 42 41 42 43 39 36 33 33 34 35 35 36 35 35 35 36 36 36 35 34 34 34
46 46 46 46 46 46 46 46 46 47 46 47 50 48 47 49 46 46 46 47 46 46 44 37 40 39 41 42 39 41 41 38 37 40 41 40 32 33 34 35 35 35 36 37 35 35 35 34 34 34 35 35 33 32
46 46 46 46 46 46 46 46 46 47 49 50 48 45 49 45 46 44 41 41 41 38 40 39 41 39 41 40 38 40 37 38 36 37 38 36 30 31 35 35 35 36 37 37 37 36 34 34 35 34 32 33 34 34
46 45 45 45 44 45 45 45 46 48 48 47 48 46 45 42 42 37 36 37 38 36 38 39 39 41 40 41 39 38 36 36 35 38 36 33 31 34 34 34 34 34 34 33 33 32 32 32 32 33 32 30 30 30
44 44 44 44 44 44 44 44 44 44 44 47 43 39 41 38 35 36 33 35 35 35 35 36 35 39 40 41 37 38 35 35 37 34 33 31 33 34 34 32 31 30 31 30 28 27 27 28 30 30 31 30 34 30
43 43 43 44 44 44 43 43 43 44 45 40 38 34 35 34 33 34 35 35 34 34 36 38 36 39 37 35 36 35 32 33 32 31 30 31 33 34 33 33 30 28 32 28 28 28 29 29 29 33 33 33 33 30
42 42 42 43 43 43 42 42 42 42 39 35 37 30 31 32 33 33 33 34 34 35 36 36 36 39 35 34 34 33 31 30 31 30 30 33 34 35 35 32 30 28 32 31 30 29 32 32 31 30 31 29 29 31
41 40 39 42 41 41 40 41 40 40 36 35 34 32 33 33 32 33 33 32 35 34 35 35 34 34 32 34 32 32 31 28 31 33 33 34 34 35 32 29 31 32 31 29 30 30 31 31 31 28 29 26 27 27
39 37 39 41 40 39 39 38 38 34 34 34 32 33 33 33 32 32 33 34 35 35 32 35 33 30 33 31 30 32 32 33 34 34 34 34 34 35 34 35 33 31 30 31 30 28 28 27 26 23 21 19 19 21
37 39 39 40 38 38 37 36 36 33 30 32 32 32 34 33 34 33 34 34 36 35 34 33 32 32 31 29 31 33 32 33 34 34 35 35 35 35 35 29 30 30 29 28 27 24 22 23 21 19 16 16 16 17
37 38 38 39 38 37 34 34 33 30 31 33 33 33 34 34 34 34 34 34 34 35 35 33 32 30 32 33 35 31 33 34 33 32 30 32 33 30 30 30 29 27 25 22 21 20 20 18 18 16 15 14 15 16
36 37 37 37 38 35 32 32 34 30 29 31 32 30 31 31 33 33 34 35 34 34 32 31 30 31 32 31 32 35 35 35 32 29 27 28 28 28 28 27 25 22 21 20 18 17 17 17 14 13 14 13 16 15
37 37 35 38 36 34 31 31 30 31 31 29 31 30 30 32 32 32 32 33 35 30 28 29 30 30 30 30 31 32 33 31 29 30 28 26 25 24 23 21 19 18 19 20 19 16 16 15 13 12 15 16 16 16
35 34 35 34 33 33 31 32 31 32 30 31 31 30 31 32 31 32 33 33 29 28 30 30 31 31 28 26 26 28 28 28 28 27 26 25 24 23 19 18 19 18 16 16 14 15 14 10 11 12 13 14 13 14
33 33 34 33 28 29 27 31 30 28 26 28 29 27 29 30 30 30 29 28 28 28 30 29 28 29 27 27 25 24 24 24 24 24 23 21 19 18 17 15 15 15 14 9 9 10 11 7 9 10 12 12 12 13
31 28 26 26 26 24 27 25 25 25 27 26 26 23 25 27 28 27 23 24 23 24 25 28 27 25 25 23 21 21 22 23 22 22 23 21 19 17 15 12 11 10 8 7 8 10 9 10 7 9 9 9 10 10
25 24 25 22 25 23 21 22 22 22 21 23 23 24 25 27 25 22 20 19 22 22 23 25 25 24 21 21 20 19 20 21 19 16 16 17 15 13 10 8 8 7 8 10 9 8 8 7 7 7 7 8 6 6
20 24 23 23 23 22 22 21 21 22 22 21 23 25 27 26 18 15 16 19 21 20 21 21 23 20 17 18 17 15 15 19 18 14 11 10 9 11 9 8 9 9 8 8 7 5 5 5 5 4 6 6 4 5
20 22 24 26 25 24 25 26 26 25 21 21 24 23 23 16 14 16 18 18 18 19 18 18 19 17 15 14 14 14 15 15 15 12 9 8 7 7 8 7 5 5 6 6 5 4 3 3 3 4 5 7 6 5
23 24 21 24 25 26 22 22 21 20 23 24 25 19 17 17 15 16 16 19 19 17 16 15 14 13 12 12 14 15 14 12 11 10 10 9 8 9 7 7 5 4 4 4 3 3 3 4 4 5 5 3 3 3
24 26 25 17 21 23 23 22 22 24 24 24 23 18 14 12 14 14 15 16 19 18 16 14 14 14 12 10 10 10 11 11 7 3 3 6 7 8 7 7 6 5 5 3 2 2 3 5 4 3 1 1 1 2
24 26 22 18 19 20 25 26 26 26 22 21 18 14 11 12 12 14 15 15 14 12 11 10 11 13 10 11 10 8 8 8 7 6 4 3 5 6 6 6 5 5 3 3 2 1 1 1 1 1 -0 -1 0 -2
26 27 22 22 21 24 23 21 25 24 22 18 17 15 11 11 12 11 10 10 10 11 11 10 8 8 8 7 7 6 6 7 3 3 3 5 5 5 6 5 5 4 3 1 0 -0 -2 -1 -0 -2 -2 -4 -6 -6
21 19 20 17 21 21 20 21 21 23 20 18 12 12 10 11 7 9 9 11 11 8 2 6 7 8 7 7 5 6 -2 4 5 3 2 4 5 6 5 5 4 3 1 -1 -1 -2 -3 -4 -3 -4 -4 -5 -7 -8
19 19 18 19 19 18 17 16 12 14 15 13 9 9 8 9 4 8 9 8 9 8 7 7 8 8 5 2 4 5 0 4 1 1 0 -0 -1 1 3 4 3 1 -1 -1 -1 -2 -4 -5 -5 -6 -6 -9 -10 -10
Lifted_Index
6 6 5 4 4 4 4 4 5 4 3 3 2 2 2 2 1 -1 -1 -1 -1 -0 1 1 2 2 2 1 1 1 1 2 2 2 2 2 3 3 3 3 4 4 4 4 4 4 5 6 6 6 5 5 5 5
6 5 5 4 4 4 4 4 4 4 3 2 2 2 2 2 1 -1 -1 -1 -1 -0 1 1 2 2 2 1 1 1 1 1 2 2 2 2 3 3 3 3 4 4 4 4 4 5 5 6 6 6 6 5 5 4
5 5 4 4 4 4 3 3 3 3 2 2 1 1 2 2 0 -0 -1 -1 -0 -0 0 1 1 2 2 1 1 1 1 1 2 2 2 2 3 3 3 3 4 5 5 5 5 5 5 6 6 6 5 5 4 4
4 4 4 3 3 3 2 2 1 1 1 1 1 1 1 1 1 -0 -0 -0 -0 -0 0 1 1 1 2 2 1 1 1 1 1 2 2 2 3 3 3 4 4 5 5 5 5 5 5 5 5 5 4 4 4 3
4 4 4 3 3 3 2 1 0 -0 -0 -0 0 1 1 1 1 -0 -0 -0 0 0 0 0 1 1 1 1 1 1 1 1 1 2 2 2 3 3 3 4 4 4 5 5 5 4 4 4 4 4 3 3 3 3
4 4 4 4 4 3 2 1 -0 -1 -1 -0 0 0 1 1 1 -0 -0 0 1 0 0 0 0 1 1 1 1 1 1 1 1 1 2 2 2 3 3 4 4 4 4 4 4 4 3 3 3 3 3 2 2 2
4 4 4 4 4 3 2 1 -0 -1 -1 -0 0 -0 0 0 0 0 0 1 1 1 1 1 1 1 0 1 1 1 1 1 1 1 2 2 2 3 3 3 3 3 3 3 3 3 3 3 3 2 2 2 2 3
3 3 3 3 3 3 2 2 1 0 0 0 0 0 0 0 0 1 1 1 2 2 2 2 2 1 0 0 0 1 1 1 1 2 2 2 2 3 3 3 3 2 2 3 3 3 3 3 3 3 3 3 4 4
3 3 3 3 3 3 3 2 1 1 1 1 1 1 1 1 0 1 1 2 2 2 2 2 2 2 1 1 1 1 1 2 2 3 2 3 3 3 3 3 3 3 3 3 3 3 4 4 4 5 5 6 6 6
3 3 3 3 3 3 3 3 2 2 2 3 2 2 2 1 1 1 1 2 2 2 3 2 2 2 2 2 2 2 2 3 3 3 3 3 4 3 3 4 4 4 4 4 4 5 5 6 6 7 7 8 9 9
3 3 3 3 3 3 3 3 3 3 3 3 2 2 2 2 2 2 2 2 2 2 2 2 2 2 2 2 2 2 2 3 3 4 4 4 4 4 4 5 5 6 7 7 7 7 8 8 8 9 9 10 10 11
3 3 3 3 3 3 3 3 3 3 3 3 2 2 2 2 2 2 1 1 1 1 1 1 1 2 2 2 2 2 3 3 3 4 4 4 4 4 5 6 7 8 9 9 9 10 10 10 11 11 11 11 12 12
3 3 3 3 3 3 3 3 3 3 3 3 2 2 2 2 1 1 1 1 1 1 1 1 2 2 2 2 2 3 3 3 3 4 4 4 4 5 6 8 9 9 10 10 11 11 12 12 12 12 12 12 11 11
4 4 4 3 3 3 3 3 3 3 3 2 2 2 2 2 2 2 1 2 2 2 2 2 2 2 2 2 2 3 3 3 3 3 3 4 5 6 8 9 9 9 10 10 11 11 12 12 12 12 11 11 11 10
5 5 4 4 4 4 3 3 3 3 3 3 2 2 2 2 2 3 3 3 3 3 3 3 2 2 2 2 2 2 2 2 2 3 4 5 6 8 8 9 9 9 10 10 11 11 11 11 11 11 11 10 10 10
7 6 6 5 5 4 4 4 4 4 3 3 3 3 3 3 3 3 3 4 4 4 3 3 2 2 2 2 2 2 2 2 3 4 5 6 7 8 8 9 9 9 9 10 10 11 11 11 11 10 10 10 10 9
8 8 7 7 6 6 6 5 5 5 5 5 5 5 5 4 4 4 4 5 5 4 3 3 3 2 2 3 3 3 3 3 4 5 6 7 7 8 8 8 9 9 9 10 10 10 11 11 10 10 9 9 9 9
10 9 9 8 8 7 7 7 7 7 7 7 7 6 6 6 6 6 6 6 6 5 4 4 3 3 3 3 3 4 4 5 5 6 7 7 7 7 8 8 9 9 9 10 10 10 10 10 10 9 9 8 8 9
11 10 10 9 9 9 9 9 9 9 9 9 8 8 8 8 8 8 8 7 7 6 5 5 4 4 4 4 5 5 5 6 6 6 6 7 7 7 7 8 8 9 9 10 10 10 9 9 9 8 8 9 9 10
10 10 9 9 9 9 9 9 9 9 9 9 9 8 8 8 8 8 8 7 7 6 6 5 5 5 5 5 5 5 6 6 6 6 7 7 7 7 7 8 8 8 9 9 9 8 8 8 8 9 10 10 11 12
9 9 9 8 8 8 8 8 8 8 8 8 8 8 8 8 8 7 7 7 6 6 6 6 6 6 6 6 6 6 6 6 6 6 7 7 7 7 7 7 8 8 8 8 7 7 7 8 9 11 12 12 13 14
9 9 9 8 8 8 8 8 8 8 8 8 8 8 8 8 8 7 7 7 7 7 7 7 7 7 6 6 6 6 6 6 6 6 6 6 6 6 7 7 7 7 7 7 7 8 9 10 11 13 13 14 14 15
9 9 9 8 8 8 8 8 8 8 8 8 8 8 8 8 8 8 8 7 8 8 9 9 8 8 7 7 6 6 6 6 6 6 6 6 6 6 6 6 7 7 7 8 9 10 11 12 13 14 14 14 15 15
9 9 8 8 8 8 8 8 8 8 8 8 8 8 8 8 8 8 8 8 9 9 10 9 9 8 8 7 7 6 6 6 5 5 5 5 5 6 6 7 8 9 9 10 11 12 13 13 14 14 15 15 15 15
8 8 8 7 7 7 7 7 7 7 7 7 7 7 7 7 7 7 7 7 8 9 9 9 8 8 7 6 6 6 6 6 5 5 5 6 6 6 7 8 9 11 12 12 12 13 13 14 14 15 15 15 14 14
7 7 7 7 6 6 6 6 6 6 6 6 6 6 6 5 5 5 5 6 7 7 8 7 7 6 5 5 5 6 6 7 7 6 7 8 9 9 9 9 10 12 13 14 14 14 14 14 14 15 15 15 14 14
6 6 6 6 5 5 4 4 4 4 4 4 4 4 4 3 3 4 5 6 7 8 8 8 7 6 6 6 7 7 8 9 9 9 10 11 12 12 12 12 12 13 15 15 15 15 15 15 15 15 15 15 15 14
5 4 4 4 4 4 4 3 4 3 3 3 3 3 3 3 4 4 6 8 9 9 9 9 9 8 8 9 9 10 10 11 11 11 12 12 13 13 14 14 15 15 16 16 16 16 16 15 15 15 15 15 15 15
4 4 4 4 4 4 4 4 4 4 4 4 4 4 4 4 5 6 8 9 10 10 9 9 9 10 10 10 11 11 12 12 12 11 11 11 12 13 15 16 16 16 17 17 17 17 16 16 16 16 15 15 15 15
5 5 4 4 4 4 4 4 4 4 5 5 4 4 4 5 7 9 10 10 10 10 9 9 10 10 10 10 11 12 13 13 13 12 11 12 13 14 15 16 16 17 16 16 16 16 16 16 16 16 15 15 15 15
5 5 5 5 5 5 5 5 5 5 5 5 5 5 5 6 7 9 11 11 10 10 10 10 10 11 11 12 12 12 13 14 14 14 14 14 15 16 16 16 17 17 16 16 16 16 16 15 15 15 14 14 14 14
5 5 5 5 5 5 5 5 5 5 5 5 5 6 6 6 7 9 11 12 11 11 11 11 12 12 13 13 14 14 14 15 15 16 16 16 16 16 16 16 17 16 16 16 16 15 15 15 14 14 14 14 14 14
5 5 5 5 5 5 5 6 6 6 5 5 6 6 6 6 6 9 12 13 12 12 12 13 13 13 14 14 15 15 15 16 16 16 16 16 16 16 16 16 16 16 16 16 15 15 15 14 14 14 14 14 14 14